timestamp,surface_pressure_avg,surface_temp_avg,battery_voltage,lat,long
2022-10-22 00:09:01+00:00,292.4614,13.79,12.09,47.84626,-54.09684
2022-10-22 00:19:00+00:00,285.2531,13.8,12.09,47.84626,-54.09684
2022-10-22 00:29:00+00:00,276.243,13.8,12.09,47.84626,-54.09684
2022-10-22 00:39:00+00:00,268.2231,13.79,12.09,47.84626,-54.09684
2022-10-22 00:49:00+00:00,263.1881,13.8,12.09,47.84626,-54.09684
2022-10-22 00:59:00+00:00,260.6564,13.79,12.09,47.84626,-54.09684
2022-10-22 01:09:00+00:00,249.6998,13.79,12.09,47.84626,-54.09684
2022-10-22 01:19:00+00:00,239.8931,13.79,12.09,47.84626,-54.09684
2022-10-22 01:29:00+00:00,234.0898,13.78,12.09,47.84626,-54.09684
2022-10-22 01:39:00+00:00,228.3381,13.7,12.09,47.84626,-54.09684
2022-10-22 01:49:00+00:00,220.9348,13.7,12.09,47.84626,-54.09684
2022-10-22 01:59:00+00:00,217.4131,13.7,12.09,47.84626,-54.09684
2022-10-22 02:09:00+00:00,216.4548,13.7,12.09,47.84626,-54.09684
2022-10-22 02:19:00+00:00,209.7648,13.7,12.09,47.84626,-54.09684
2022-10-22 02:29:00+00:00,206.0664,13.7,12.09,47.84626,-54.09684
2022-10-22 02:39:00+00:00,208.3948,13.7,12.09,47.84626,-54.09684
2022-10-22 02:49:00+00:00,205.4115,13.7,12.09,47.84626,-54.09684
2022-10-22 02:59:00+00:00,200.9098,13.73,12.09,47.84626,-54.09684
2022-10-22 03:09:00+00:00,206.8548,13.74,12.09,47.84626,-54.09684
2022-10-22 03:19:00+00:00,212.5565,13.74,12.09,47.84626,-54.09684
2022-10-22 03:29:00+00:00,207.2198,13.78,12.09,47.84626,-54.09684
2022-10-22 03:39:00+00:00,204.4465,13.79,12.09,47.84626,-54.09684
2022-10-22 03:49:00+00:00,208.9548,13.79,12.09,47.84626,-54.09684
2022-10-22 03:59:00+00:00,212.0498,13.8,12.09,47.84626,-54.09684
2022-10-22 04:09:00+00:00,210.9132,13.8,12.09,47.84626,-54.09684
2022-10-22 04:19:00+00:00,215.4931,13.79,12.09,47.84626,-54.09684
2022-10-22 04:29:00+00:00,221.7714,13.78,12.09,47.84626,-54.09684
2022-10-22 04:39:00+00:00,222.0898,13.77,12.09,47.84626,-54.09684
2022-10-22 04:49:00+00:00,222.4148,13.74,12.09,47.84626,-54.09684
2022-10-22 04:59:00+00:00,223.4831,13.7,12.09,47.84626,-54.09684
2022-10-22 05:09:00+00:00,224.7097,13.7,12.09,47.84626,-54.09684
2022-10-22 05:19:01+00:00,230.6514,13.7,12.09,47.84626,-54.09684
2022-10-22 05:29:01+00:00,234.3147,13.7,12.09,47.84626,-54.09684
2022-10-22 05:39:01+00:00,236.8931,13.7,12.09,47.84626,-54.09684
2022-10-22 05:49:01+00:00,242.0297,13.7,12.09,47.84626,-54.09684
2022-10-22 05:59:01+00:00,249.6797,13.7,12.09,47.84626,-54.09684
2022-10-22 06:09:01+00:00,252.6364,13.7,12.09,47.84626,-54.09684
2022-10-22 06:19:00+00:00,257.1497,13.7,12.09,47.84626,-54.09684
2022-10-22 06:29:00+00:00,262.8731,13.7,12.09,47.84626,-54.09684
2022-10-22 06:39:00+00:00,268.9715,13.7,12.09,47.84626,-54.09684
2022-10-22 06:49:00+00:00,269.5664,13.7,12.09,47.84626,-54.09684
2022-10-22 06:59:00+00:00,272.3548,13.7,12.09,47.84626,-54.09684
2022-10-22 07:09:00+00:00,278.3114,13.7,12.09,47.84626,-54.09684
2022-10-22 07:19:00+00:00,283.3713,13.7,12.09,47.84626,-54.09684
2022-10-22 07:29:00+00:00,286.0314,13.7,12.09,47.84626,-54.09684
2022-10-22 07:39:00+00:00,290.9681,13.71,12.09,47.84626,-54.09684
2022-10-22 07:49:00+00:00,294.5797,13.71,12.09,47.84626,-54.09684
2022-10-22 07:59:00+00:00,297.4447,13.7,12.09,47.84626,-54.09684
2022-10-22 08:09:00+00:00,304.0214,13.7,12.09,47.84626,-54.09684
2022-10-22 08:19:00+00:00,306.9697,13.7,12.09,47.84626,-54.09684
2022-10-22 08:29:00+00:00,303.6647,13.7,12.09,47.84626,-54.09684
2022-10-22 08:39:00+00:00,308.8864,13.7,12.09,47.84626,-54.09684
2022-10-22 08:49:00+00:00,313.6763,13.7,12.09,47.84626,-54.09684
2022-10-22 08:59:00+00:00,308.4063,13.7,12.09,47.84626,-54.09684
2022-10-22 09:09:00+00:00,309.933,13.7,12.09,47.84626,-54.09684
2022-10-22 09:19:00+00:00,319.068,13.7,12.09,47.84626,-54.09684
2022-10-22 09:29:00+00:00,321.1614,13.7,12.09,47.84626,-54.09684
2022-10-22 09:39:00+00:00,319.4497,13.7,12.09,47.84626,-54.09684
2022-10-22 09:49:00+00:00,322.653,13.7,12.09,47.84626,-54.09684
2022-10-22 09:59:00+00:00,322.8113,13.71,12.09,47.84626,-54.09684
2022-10-22 10:09:00+00:00,317.6246,13.71,12.09,47.84626,-54.09684
2022-10-22 10:19:00+00:00,320.1996,13.71,12.09,47.84626,-54.09684
2022-10-22 10:29:00+00:00,319.678,13.71,12.09,47.84626,-54.09684
2022-10-22 10:39:00+00:00,313.6247,13.72,12.09,47.84626,-54.09684
2022-10-22 10:49:00+00:00,310.8914,13.72,12.09,47.84626,-54.09684
2022-10-22 10:59:00+00:00,311.6947,13.74,12.09,47.84626,-54.09684
2022-10-22 11:09:00+00:00,306.6697,13.72,12.09,47.84626,-54.09684
2022-10-22 11:19:00+00:00,298.173,13.72,12.49,47.84626,-54.09684
2022-10-22 11:29:00+00:00,297.778,13.72,12.49,47.84626,-54.09684
2022-10-22 11:39:00+00:00,294.6114,13.73,12.49,47.84626,-54.09684
2022-10-22 11:49:00+00:00,285.5098,13.72,12.49,47.84626,-54.09684
2022-10-22 11:59:00+00:00,278.348,13.72,12.49,47.84626,-54.09684
2022-10-22 12:09:00+00:00,272.5081,13.74,12.49,47.84626,-54.09684
2022-10-22 12:19:00+00:00,268.3681,13.74,12.73,47.84626,-54.09684
2022-10-22 12:29:00+00:00,261.0347,13.74,12.73,47.84626,-54.09684
2022-10-22 12:39:00+00:00,256.1181,13.73,12.73,47.84626,-54.09684
2022-10-22 12:49:00+00:00,251.9664,13.71,12.73,47.84626,-54.09684
2022-10-22 12:59:00+00:00,245.1664,13.71,12.73,47.84626,-54.09684
2022-10-22 13:09:00+00:00,237.3381,13.71,12.73,47.84626,-54.09684
2022-10-22 13:19:00+00:00,235.4981,13.72,12.73,47.84626,-54.09684
2022-10-22 13:29:00+00:00,236.6064,13.72,12.73,47.84626,-54.09684
2022-10-22 13:39:00+00:00,228.6197,13.71,12.73,47.84626,-54.09684
2022-10-22 13:49:00+00:00,214.8348,13.72,12.73,47.84626,-54.09684
2022-10-22 13:59:00+00:00,212.7948,13.75,12.73,47.84626,-54.09684
2022-10-22 14:09:00+00:00,215.4565,13.75,12.73,47.84626,-54.09684
2022-10-22 14:19:00+00:00,208.9131,13.76,12.81,47.84626,-54.09684
2022-10-22 14:29:00+00:00,202.8831,13.77,12.81,47.84626,-54.09684
2022-10-22 14:39:00+00:00,205.3282,13.78,12.81,47.84626,-54.09684
2022-10-22 14:49:00+00:00,201.6115,13.78,12.81,47.84626,-54.09684
2022-10-22 14:59:00+00:00,192.8015,13.8,12.81,47.84626,-54.09684
2022-10-22 15:09:00+00:00,195.1631,13.82,12.81,47.84626,-54.09684
2022-10-22 15:19:00+00:00,198.9598,13.8,12.81,47.84626,-54.09684
2022-10-22 15:29:00+00:00,191.3881,13.8,12.81,47.84626,-54.09684
2022-10-22 15:39:00+00:00,190.7298,13.8,12.81,47.84626,-54.09684
2022-10-22 15:49:00+00:00,203.0531,13.8,12.81,47.84626,-54.09684
2022-10-22 15:59:00+00:00,203.3364,13.8,12.81,47.84626,-54.09684
2022-10-22 16:09:00+00:00,193.3031,13.8,12.81,47.84626,-54.09684
2022-10-22 16:19:00+00:00,194.6298,13.86,12.73,47.84626,-54.09684
2022-10-22 16:29:00+00:00,201.9748,13.8,12.73,47.84626,-54.09684
2022-10-22 16:39:00+00:00,200.8582,13.8,12.73,47.84626,-54.09684
2022-10-22 16:49:00+00:00,201.5265,13.8,12.73,47.84626,-54.09684
2022-10-22 16:59:00+00:00,209.6731,13.8,12.73,47.84626,-54.09684
2022-10-22 17:09:00+00:00,212.5264,13.8,12.73,47.84626,-54.09684
2022-10-22 17:19:00+00:00,214.2881,13.8,12.65,47.84626,-54.09684
2022-10-22 17:29:00+00:00,219.0847,13.8,12.65,47.84626,-54.09684
2022-10-22 17:39:00+00:00,223.8897,13.8,12.65,47.84626,-54.09684
2022-10-22 17:49:00+00:00,227.4547,13.8,12.65,47.84626,-54.09684
2022-10-22 17:59:00+00:00,230.3081,13.84,12.65,47.84626,-54.09684
2022-10-22 18:09:00+00:00,234.1614,13.88,12.65,47.84626,-54.09684
2022-10-22 18:19:00+00:00,235.7115,13.8,12.57,47.84626,-54.09684
2022-10-22 18:29:00+00:00,237.9581,13.8,12.57,47.84626,-54.09684
2022-10-22 18:39:00+00:00,245.1631,13.8,12.57,47.84626,-54.09684
2022-10-22 18:49:00+00:00,249.8531,13.8,12.57,47.84626,-54.09684
2022-10-22 18:59:00+00:00,251.4764,13.8,12.57,47.84626,-54.09684
2022-10-22 19:09:00+00:00,255.1464,13.83,12.57,47.84626,-54.09684
2022-10-22 19:19:00+00:00,264.9231,13.81,12.41,47.84626,-54.09684
2022-10-22 19:29:00+00:00,272.1797,13.8,12.41,47.84626,-54.09684
2022-10-22 19:39:00+00:00,275.9131,13.8,12.41,47.84626,-54.09684
2022-10-22 19:49:00+00:00,286.1064,13.8,12.41,47.84626,-54.09684
2022-10-22 19:59:00+00:00,296.918,13.8,12.41,47.84626,-54.09684
2022-10-22 20:09:00+00:00,298.1314,13.8,12.41,47.84626,-54.09684
2022-10-22 20:19:00+00:00,300.8297,13.8,12.25,47.84626,-54.09684
2022-10-22 20:29:00+00:00,313.1213,13.8,12.25,47.84626,-54.09684
2022-10-22 20:39:00+00:00,320.4563,13.8,12.25,47.84626,-54.09684
2022-10-22 20:49:00+00:00,319.893,13.8,12.25,47.84626,-54.09684
2022-10-22 20:59:00+00:00,322.0914,13.8,12.25,47.84626,-54.09684
2022-10-22 21:09:00+00:00,330.3279,13.8,12.25,47.84626,-54.09684
2022-10-22 21:19:00+00:00,335.0313,13.78,12.25,47.84626,-54.09684
2022-10-22 21:29:00+00:00,334.5797,13.75,12.25,47.84626,-54.09684
2022-10-22 21:39:00+00:00,337.4929,13.77,12.25,47.84626,-54.09684
2022-10-22 21:49:00+00:00,340.9564,13.77,12.25,47.84626,-54.09684
2022-10-22 21:59:00+00:00,340.713,13.79,12.25,47.84626,-54.09684
2022-10-22 22:09:00+00:00,341.86300000000006,13.79,12.25,47.84626,-54.09684
2022-10-22 22:19:00+00:00,338.2896,13.8,12.25,47.84626,-54.09684
2022-10-22 22:29:00+00:00,335.3929,13.8,12.25,47.84626,-54.09684
2022-10-22 22:39:00+00:00,334.1379,13.8,12.25,47.84626,-54.09684
2022-10-22 22:49:00+00:00,336.9163,13.8,12.25,47.84626,-54.09684
2022-10-22 22:59:00+00:00,332.8280000000001,13.8,12.25,47.84626,-54.09684
2022-10-22 23:09:00+00:00,327.5596,13.8,12.25,47.84626,-54.09684
2022-10-22 23:19:00+00:00,319.0663,13.8,12.17,47.84626,-54.09684
2022-10-22 23:29:00+00:00,315.9264,13.8,12.17,47.84626,-54.09684
2022-10-22 23:39:00+00:00,315.4846,13.79,12.17,47.84626,-54.09684
2022-10-22 23:49:00+00:00,311.6463,13.78,12.17,47.84626,-54.09684
2022-10-22 23:59:00+00:00,304.7613,13.71,12.17,47.84626,-54.09684
